Location: Berville
(49.1893°N, 2.0748°E)
Time: 18:17:49
(UTC+00:00)

FENGYUN 1C DEB - Pass Details

Date: 05 March 2024
Orbit: 768 x 960 km, 99.0° (Epoch: 12 April)

Event Time Altitude Azimuth Distance (km) Brightness Sun altitude
Exits shadow 19:38:14 30° 76° (ENE) 1,636 ? -19.7°
Maximum altitude 19:39:05 31° 61° (ENE) 1,594 ? -19.8°
Drops below altitude 10° 19:44:11 10° 1° (N) 2,636 ? -20.6°
Sets 19:46:49 0° 352° (N) 3,557 ? -21.0°
